Date String (YYYY-MM-DD hh:mm:ss) UTC,Instrument flags,Ambient pressure (hPa),Sample flow (lpm),Bypass flow (lpm),Sample temperature (°C),Ambient temperature (°C),ASC tube jacket temperature (°C),LED temperature (°C),Box temperature (°C),Sample RH (%),Span deviation,Mass concentration (μg/m³),Mass concentration (μg/m³),Mass concentration (μg/m³)
DateTimeUTC,F1_M11,P_M11,Q1_M11,Q2_M11,T1_M11,T2_M11,T3_M11,T4_M11,T5_M11,U1_M11,ZSPAN_M11,X0_M11,X2_M11,X1_M11
2022-10-30 04:00:00,,0829.3,5.01,0.00,26.7,24.9,00.0,35.6,28.4,07.9,0000.0,0007.81,0003.80,0003.54
2022-10-30 04:01:00,,0829.3,5.00,0.00,26.7,24.9,00.0,35.6,28.4,07.9,0000.0,0007.68,0003.79,0003.52
2022-10-30 04:02:00,,0829.3,5.00,0.00,26.7,24.9,00.0,35.6,28.4,07.9,0000.0,0008.00,0003.81,0003.53
2022-10-30 04:03:00,,0829.2,5.02,0.00,26.7,24.9,00.0,35.6,28.5,07.9,0000.0,0008.43,0003.83,0003.54
2022-10-30 04:04:00,,0829.3,5.01,0.00,26.7,24.9,00.0,35.6,28.4,08.0,0000.0,0008.78,0003.86,0003.54
2022-10-30 04:05:00,,0829.3,5.01,0.00,26.6,24.9,00.0,35.6,28.4,08.0,0000.0,0008.92,0003.88,0003.55
2022-10-30 04:06:00,,0829.2,4.99,0.00,26.6,24.9,00.0,35.6,28.4,07.9,0000.0,0008.91,0003.88,0003.55
2022-10-30 04:07:00,,0829.2,5.01,0.00,26.6,24.9,00.0,35.6,28.4,07.9,0000.0,0008.92,0003.89,0003.56
2022-10-30 04:08:00,,0829.3,5.00,0.00,26.6,24.9,00.0,35.6,28.4,08.0,0000.0,0008.69,0003.91,0003.58
2022-10-30 04:09:00,,0829.2,4.98,0.00,26.6,24.9,00.0,35.6,28.3,07.9,0000.0,0008.60,0003.92,0003.59
2022-10-30 04:10:00,,0829.2,5.01,0.00,26.6,24.9,00.0,35.5,28.4,08.0,0000.0,0008.23,0003.93,0003.60
2022-10-30 04:11:00,,0829.3,5.01,0.00,26.6,24.9,00.0,35.5,28.3,08.0,0000.0,0008.38,0003.93,0003.60
2022-10-30 04:12:00,,0829.3,4.99,0.00,26.6,24.9,00.0,35.5,28.4,08.1,0000.0,0008.44,0003.94,0003.60
2022-10-30 04:13:00,,0829.3,5.00,0.00,26.6,24.9,00.0,35.5,28.4,08.0,0000.0,0008.26,0003.92,0003.60
2022-10-30 04:14:00,,0829.2,5.01,0.00,26.6,24.9,00.0,35.5,28.4,08.0,0000.0,0008.78,0003.91,0003.59
2022-10-30 04:15:00,,0829.2,4.98,0.00,26.6,24.9,00.0,35.5,28.4,08.0,0000.0,0008.56,0003.92,0003.60
2022-10-30 04:16:00,,0829.3,5.01,0.00,26.6,24.9,00.0,35.5,28.4,08.0,0000.0,0008.47,0003.92,0003.60
2022-10-30 04:17:00,,0829.3,4.98,0.00,26.6,24.9,00.0,35.5,28.4,08.0,0000.0,0009.37,0003.91,0003.60
2022-10-30 04:18:00,,0829.3,5.01,0.00,26.6,24.9,00.0,35.5,28.4,08.0,0000.0,0010.14,0003.91,0003.59
2022-10-30 04:19:00,,0829.2,5.01,0.00,26.6,24.9,00.0,35.5,28.3,08.0,0000.0,0009.74,0003.88,0003.58
2022-10-30 04:20:00,,0829.2,5.00,0.00,26.6,24.8,00.0,35.5,28.3,08.1,0000.0,0009.72,0003.86,0003.57
2022-10-30 04:21:00,,0829.2,4.99,0.00,26.6,24.8,00.0,35.5,28.3,08.1,0000.0,0009.61,0003.85,0003.57
2022-10-30 04:22:00,,0829.3,5.01,0.00,26.5,24.8,00.0,35.5,28.3,08.1,0000.0,0009.38,0003.83,0003.57
2022-10-30 04:23:00,,0829.2,4.98,0.00,26.6,24.8,00.0,35.5,28.3,08.1,0000.0,0009.52,0003.84,0003.58
2022-10-30 04:24:00,,0829.2,5.01,0.00,26.6,24.8,00.0,35.5,28.3,08.1,0000.0,0009.99,0003.86,0003.59
2022-10-30 04:25:00,,0829.2,5.00,0.00,26.6,24.9,00.0,35.5,28.3,08.1,0000.0,0009.14,0003.87,0003.60
2022-10-30 04:26:00,,0829.2,4.99,0.00,26.5,24.9,00.0,35.4,28.3,08.2,0000.0,0009.09,0003.85,0003.60
2022-10-30 04:27:00,,0829.3,5.00,0.00,26.5,24.9,00.0,35.4,28.3,08.2,0000.0,0009.03,0003.87,0003.61
2022-10-30 04:28:00,,0829.2,4.99,0.00,26.5,24.9,00.0,35.4,28.3,08.2,0000.0,0008.07,0003.86,0003.62
2022-10-30 04:29:00,,0829.3,5.01,0.00,26.5,24.9,00.0,35.4,28.3,08.2,0000.0,0007.39,0003.88,0003.63
2022-10-30 04:30:00,,0829.2,4.98,0.00,26.5,24.8,00.0,35.4,28.3,08.2,0000.0,0007.78,0003.92,0003.64
2022-10-30 04:31:00,,0829.2,5.02,0.00,26.5,24.8,00.0,35.4,28.3,08.2,0000.0,0007.80,0003.95,0003.64
2022-10-30 04:32:00,,0829.2,4.98,0.00,26.5,24.9,00.0,35.4,28.3,08.2,0000.0,0008.18,0003.97,0003.65
2022-10-30 04:33:00,,0829.2,5.01,0.00,26.5,24.8,00.0,35.4,28.3,08.2,0000.0,0008.50,0003.99,0003.65
2022-10-30 04:34:00,,0829.2,4.98,0.00,26.5,24.8,00.0,35.4,28.3,08.2,0000.0,0008.65,0004.01,0003.64
2022-10-30 04:35:00,,0829.3,5.01,0.00,26.5,24.8,00.0,35.4,28.3,08.2,0000.0,0008.77,0004.02,0003.65
2022-10-30 04:36:00,,0829.3,4.99,0.00,26.5,24.8,00.0,35.4,28.2,08.3,0000.0,0008.76,0004.05,0003.65
2022-10-30 04:37:00,,0829.3,4.99,0.00,26.5,24.8,00.0,35.4,28.2,08.3,0000.0,0008.71,0004.04,0003.64
2022-10-30 04:38:00,,0829.3,5.01,0.00,26.5,24.8,00.0,35.4,28.3,08.3,0000.0,0008.74,0004.03,0003.63
2022-10-30 04:39:00,,0829.2,4.98,0.00,26.5,24.8,00.0,35.4,28.3,08.3,0000.0,0008.90,0004.03,0003.63
2022-10-30 04:40:00,,0829.2,5.01,0.00,26.5,24.8,00.0,35.4,28.2,08.3,0000.0,0008.83,0004.01,0003.62
2022-10-30 04:41:00,,0829.2,5.00,0.00,26.5,24.8,00.0,35.4,28.2,08.2,0000.0,0008.51,0003.99,0003.61
2022-10-30 04:42:00,,0829.3,5.00,0.00,26.5,24.7,00.0,35.4,28.2,08.2,0000.0,0008.46,0003.96,0003.61
2022-10-30 04:43:00,,0829.3,4.99,0.00,26.5,24.7,00.0,35.4,28.2,08.2,0000.0,0008.14,0003.96,0003.60
2022-10-30 04:44:00,,0829.2,5.01,0.00,26.4,24.7,00.0,35.4,28.2,08.3,0000.0,0007.83,0003.95,0003.60
2022-10-30 04:45:00,,0829.3,4.99,0.00,26.4,24.7,00.0,35.4,28.1,08.3,0000.0,0007.50,0003.94,0003.61
2022-10-30 04:46:00,,0829.3,5.01,0.00,26.4,24.7,00.0,35.4,28.2,08.2,0000.0,0006.99,0003.93,0003.61
2022-10-30 04:47:00,,0829.2,5.01,0.00,26.4,24.7,00.0,35.3,28.1,08.2,0000.0,0007.39,0003.90,0003.61
2022-10-30 04:48:00,,0829.2,4.98,0.00,26.4,24.7,00.0,35.3,28.2,08.2,0000.0,0007.42,0003.91,0003.61
2022-10-30 04:49:00,,0829.3,5.01,0.00,26.4,24.7,00.0,35.3,28.2,08.2,0000.0,0007.45,0003.90,0003.61
2022-10-30 04:50:00,,0829.3,4.99,0.00,26.4,24.7,00.0,35.3,28.1,08.2,0000.0,0007.37,0003.92,0003.62
2022-10-30 04:51:00,,0829.3,5.01,0.00,26.4,24.6,00.0,35.3,28.1,08.2,0000.0,0007.44,0003.92,0003.63
2022-10-30 04:52:00,,0829.3,5.01,0.00,26.4,24.6,00.0,35.3,28.1,08.2,0000.0,0007.41,0003.91,0003.65
2022-10-30 04:53:00,,0829.2,5.00,0.00,26.4,24.6,00.0,35.3,28.1,08.2,0000.0,0007.40,0003.93,0003.67
2022-10-30 04:54:00,,0829.2,5.01,0.00,26.3,24.6,00.0,35.3,28.0,08.3,0000.0,0007.27,0003.91,0003.68
2022-10-30 04:55:00,,0829.3,4.98,0.00,26.3,24.6,00.0,35.3,28.1,08.3,0000.0,0007.31,0003.94,0003.70
2022-10-30 04:56:00,,0829.3,5.01,0.00,26.3,24.6,00.0,35.3,28.1,08.3,0000.0,0007.29,0003.95,0003.72
2022-10-30 04:57:00,,0829.3,4.98,0.00,26.3,24.6,00.0,35.3,28.0,08.3,0000.0,0007.36,0003.99,0003.73
2022-10-30 04:58:00,,0829.3,5.01,0.00,26.3,24.6,00.0,35.3,28.0,08.3,0000.0,0006.63,0004.01,0003.74
2022-10-30 04:59:00,,0829.2,5.01,0.00,26.3,24.6,00.0,35.3,28.0,08.3,0000.0,0006.63,0004.02,0003.77
